2018-092B

Last updated on Thu Nov 29 2018 00:02:08 GMT+0000 (Coordinated Universal Time)

1 43705U 18092B 18332.38339838 .11699323 12403-4 28612-3 0 9991 2 43705 51.5918 275.0334 0009375 200.7890 159.3170 16.45397611 1789

Satellite not in orbit